COSMOS 2325 (GLONASS)

Satellite information

Favourite Embed

Satellite Type and Status

PAYLOADIN ORBIT

Key statistics

Satellite COSMOS 2325 (GLONASS) at a glance.

Uptime

10858

Days in orbit

Revolutions

≈ 2.1

Per day

Orbit

MEO

Medium Earth Orbit

Inclination

65.5

Latest

Satellite identification and parameters

Extended collection of information and parameters for COSMOS 2325 (GLONASS).

Object identification

Identified? True

Debris? False

Object name: COSMOS 2325 (GLONASS)

International designator: 1995-068A

Object number (NORAD): 23734

Object ID (CCSDS): 23734

Country: COMMONWEALTH OF INDEPENDENT STATES (CIS)

Current information (Y/N): Y

RCS size: LARGE

Orbital parameters

Period: 675.731 minutes

Inclination: 65.4754 deg

SMA: 25507.986 km

Apoapsis: 19184.789 km

Periapsis: 19074.914 km

RAAN: 212.0982 deg

Eccentricy: 0.00215373

Argument of periapsis: 222.3733 deg

Mean anomaly: 260.3196 deg

Mean motion: 2.13102479 rev/day

Mean motion (dot): 0.00000061 rev/day2

B* drag term: 0.0 1/REarth

Two-line elements (TLE)

Creation date: Sept. 2, 2025, 10:20 a.m.

Reference frame: TEME

Reference center: EARTH

Epoch: Sept. 2, 2025, 3:24 a.m. UTC

TLE line 0: 0 COSMOS 2325 (GLONASS)

TLE line 1: 1 23734U 95068A 25245.14200456 .00000061 00000-0 00000-0 0 9994

TLE line 2: 2 23734 65.4754 212.0982 0021537 222.3733 260.3196 2.13102479231255

Live tracking on map

Real-time ground track for satellite COSMOS 2325 (GLONASS).

In-orbit conjunctions

There are no conjunctions computed for COSMOS 2325 (GLONASS), at the moment. Check back to stay up to date, as we update our databases every day.

Go to all conjunctions

Associated space launch

GLONASS navigation satellites

COSMOS 2325 (GLONASS) was lifted into orbit during the mission ‘Proton | Uragan 69 to 71’, on board a Proton space rocket.

The launch took place on Dec. 14, 1995, 6:10 a.m. from 200/39 (200L).

For more information about the launch, click the button.

Launch to space Proton | Uragan 69 to 71
Proton | Uragan 69 to 71

Agency: N/A

Status: Launch Successful

Launch date: Dec. 14, 1995, 6:10 a.m. UTC

Rocket: Proton

Launch pad: 200/39 (200L)

Location: Baikonur Cosmodrome, Republic of Kazakhstan

...

Latest news about this satellite

There are no fresh news available about this satellite. Check back as we update our databases every day.


Newsletter sign-up

Weekly statistics, charts and insights to help you stay on top of the space industry.